Find OneWeb SL0210

NORAD ID: 48787 Int'l Des: 2021-045 Owner: ONEWEBN Country: UK Constellation: oneweb operational
別名: ONEWEB-0210 spacetrack, celestrak
LEOCIRCULARPOLARONEWEB_TYPE

現在のビュー

3D地球を読み込み中...

About OneWeb SL0210

OneWeb SL0210 (NORAD 48787) is a oneweb constellation satellite launched May 28, 2021 by ONEWEBN of UK. It operates in LEO, CIRCULAR, POLAR, ONEWEB_TYPE orbit with a mass of 148.00 kg.

次回通過

Passes for default location (London). Set your location on the main map for personalized predictions.

高度履歴

Loading altitude history...

軌道要素

1 48787U 21045W 26246.26292982 -.00000298 00000-0 -82545-3 0 9994
2 48787 87.8970 243.6236 0002874 85.8759 274.2700 13.15547816254581
Epoch: Sep 3, 2026 • Age: 25 hours

現在のステータス

高度 1232.4 km
遠地点 / 近地点 N/A
速度 7.24 km/s
衛星直下点 -82.53°S, 132.12°E
打ち上げ日 May 28, 2021
運用期間 5.2 years
タイプ internet

技術仕様

分類 Payload
質量 148.00 kg
乾燥質量 140.00 kg
総質量 148.00 kg
長さ 1.30 m
直径 1.00 m
スパン 5.00 m
形状 Trapezoid+2 pan
製造者 ONEWUS
バスタイプ ARROW
フェーズステータス In Orbit
所有者/国 ONEWEBN/UK

Most Searched